Location: Laura�t
(43.9341°N, 0.2497°E)
Time: 22:48:23
(UTC+00:00)

Lacrosse 4 Rocket - Pass Details

Date: 03 March 2021
Orbit: 537 x 620 km, 68.0° (Epoch: 17 April)

Event Time Altitude Azimuth Distance (km) Brightness Sun altitude
Rises 19:09:06 0° 178° (S) 2,807 4.9 -15.0°
Reaches altitude 10° 19:11:34 10° 166° (SSE) 1,926 3.9 -15.4°
Enters shadow 19:14:28 25° 125° (SE) 1,226 2.6 -16.0°
